Location: Munkebjergskolens Observatorium
(55.3864°N, 10.3987°E)
Time: 03:49:33
(UTC+02:00)

QB50P2 - Pass Details

Date: 06 April 2023
Orbit: 581 x 596 km, 98.0° (Epoch: 31 May)

Event Time Altitude Azimuth Distance (km) Brightness Sun altitude
Rises 04:01:43 0° 11° (N) 2,838 ? -19.9°
Reaches altitude 10° 04:03:58 10° 5° (N) 1,929 ? -19.7°
Maximum altitude 04:07:56 44° 294° (WNW) 826 ? -19.3°
Enters shadow 04:08:38 40° 266° (W) 880 ? -19.3°
